TimeEST,TemperatureF,Dew PointF,Humidity,Sea Level PressureIn,VisibilityMPH,Wind Direction,Wind SpeedMPH,Gust SpeedMPH,PrecipitationIn,Events,Conditions,WindDirDegrees,DateUTC
12:51 AM,60.1,60.1,100,30.16,5.0,WSW,5.8,-,N/A,,Mostly Cloudy,240,2013-01-12 05:51:00
1:51 AM,59.0,59.0,100,30.16,3.0,WSW,5.8,-,N/A,,Mostly Cloudy,240,2013-01-12 06:51:00
2:25 AM,59.0,59.0,100,30.15,4.0,WSW,6.9,-,N/A,,Mostly Cloudy,240,2013-01-12 07:25:00
2:42 AM,59.0,59.0,100,30.15,5.0,WSW,6.9,-,N/A,,Scattered Clouds,250,2013-01-12 07:42:00
2:51 AM,59.0,59.0,100,30.15,4.0,WSW,5.8,-,N/A,,Scattered Clouds,240,2013-01-12 07:51:00
3:51 AM,60.1,60.1,100,30.14,5.0,West,6.9,-,N/A,,Clear,260,2013-01-12 08:51:00
4:51 AM,60.1,60.1,100,30.14,5.0,West,5.8,-,N/A,,Clear,260,2013-01-12 09:51:00
5:51 AM,59.0,59.0,100,30.14,6.0,West,4.6,-,N/A,,Clear,280,2013-01-12 10:51:00
6:04 AM,57.2,57.2,100,30.15,2.5,West,3.5,-,N/A,,Scattered Clouds,280,2013-01-12 11:04:00
6:07 AM,57.2,57.2,100,30.15,1.2,WNW,4.6,-,N/A,,Scattered Clouds,290,2013-01-12 11:07:00
6:10 AM,55.4,55.4,100,30.15,0.8,WNW,5.8,-,N/A,,Mist,290,2013-01-12 11:10:00
6:51 AM,52.0,52.0,100,30.16,0.5,WNW,4.6,-,N/A,Fog,Fog,300,2013-01-12 11:51:00
7:20 AM,53.6,53.6,100,30.17,0.2,NW,4.6,-,N/A,Fog,Fog,320,2013-01-12 12:20:00
7:30 AM,55.4,55.4,100,30.17,0.8,WNW,3.5,-,N/A,,Mist,300,2013-01-12 12:30:00
7:34 AM,55.4,55.4,100,30.17,1.5,WNW,4.6,-,N/A,,Overcast,290,2013-01-12 12:34:00
7:51 AM,54.0,54.0,100,30.17,1.0,Calm,Calm,-,N/A,,Overcast,0,2013-01-12 12:51:00
7:57 AM,55.4,55.4,100,30.17,0.5,WNW,3.5,-,N/A,Fog,Fog,290,2013-01-12 12:57:00
8:08 AM,55.4,55.4,100,30.17,0.2,Calm,Calm,-,N/A,Fog,Fog,0,2013-01-12 13:08:00
8:51 AM,59.0,59.0,100,30.18,0.2,West,3.5,-,N/A,Fog,Fog,280,2013-01-12 13:51:00
9:51 AM,60.1,60.1,100,30.19,0.2,Calm,Calm,-,N/A,Fog,Fog,0,2013-01-12 14:51:00
10:47 AM,60.8,59.0,94,30.18,0.5,West,5.8,-,N/A,Fog,Fog,280,2013-01-12 15:47:00
10:51 AM,60.1,60.1,100,30.17,0.5,West,4.6,-,N/A,Fog,Fog,280,2013-01-12 15:51:00
11:32 AM,59.0,59.0,100,30.16,0.2,NW,5.8,-,N/A,Fog,Fog,310,2013-01-12 16:32:00
11:51 AM,59.0,59.0,100,30.15,0.5,NW,4.6,-,N/A,Fog,Fog,310,2013-01-12 16:51:00
12:19 PM,60.8,59.0,94,30.14,1.5,NW,3.5,-,N/A,,Overcast,310,2013-01-12 17:19:00
12:22 PM,60.8,59.0,94,30.14,3.0,NW,3.5,-,N/A,,Overcast,310,2013-01-12 17:22:00
12:29 PM,60.8,59.0,94,30.14,6.0,WNW,4.6,-,N/A,,Overcast,290,2013-01-12 17:29:00
12:47 PM,62.6,60.8,94,30.13,9.0,WNW,4.6,-,N/A,,Overcast,290,2013-01-12 17:47:00
12:51 PM,64.0,60.1,87,30.13,10.0,NW,3.5,-,N/A,,Overcast,310,2013-01-12 17:51:00
1:23 PM,62.6,59.0,88,30.13,8.0,WNW,4.6,-,N/A,,Overcast,290,2013-01-12 18:23:00
1:51 PM,62.1,60.1,93,30.13,4.0,WNW,4.6,-,0.00,,Overcast,300,2013-01-12 18:51:00
1:59 PM,62.6,59.0,88,30.12,4.0,NW,3.5,-,N/A,,Overcast,320,2013-01-12 18:59:00
2:13 PM,62.6,60.8,94,30.12,1.8,WNW,4.6,-,N/A,,Overcast,300,2013-01-12 19:13:00
2:20 PM,60.8,60.8,100,30.12,0.8,WNW,4.6,-,N/A,,Overcast,300,2013-01-12 19:20:00
2:31 PM,62.6,60.8,94,30.12,1.5,NNW,3.5,-,N/A,,Overcast,330,2013-01-12 19:31:00
2:40 PM,62.6,59.0,88,30.12,3.0,NW,3.5,-,N/A,,Overcast,320,2013-01-12 19:40:00
2:51 PM,62.1,60.1,93,30.12,3.0,NNW,3.5,-,N/A,,Overcast,330,2013-01-12 19:51:00
2:59 PM,62.6,59.0,88,30.12,4.0,WNW,3.5,-,N/A,,Overcast,300,2013-01-12 19:59:00
3:51 PM,60.1,57.9,93,30.14,3.0,Calm,Calm,-,N/A,,Overcast,0,2013-01-12 20:51:00
4:02 PM,59.0,57.2,94,30.14,1.8,Calm,Calm,-,N/A,,Overcast,0,2013-01-12 21:02:00
4:11 PM,59.0,57.2,94,30.14,1.0,Calm,Calm,-,N/A,,Overcast,0,2013-01-12 21:11:00
4:18 PM,59.0,57.2,94,30.14,0.5,Calm,Calm,-,N/A,Fog,Fog,0,2013-01-12 21:18:00
4:40 PM,60.8,59.0,94,30.14,1.2,Calm,Calm,-,N/A,,Overcast,0,2013-01-12 21:40:00
4:51 PM,60.1,59.0,96,30.14,0.8,Calm,Calm,-,N/A,,Mist,0,2013-01-12 21:51:00
5:23 PM,57.2,57.2,100,30.14,1.2,NE,4.6,-,N/A,,Overcast,50,2013-01-12 22:23:00
5:31 PM,57.2,57.2,100,30.15,1.8,Calm,Calm,-,N/A,,Overcast,0,2013-01-12 22:31:00
5:51 PM,57.0,57.0,100,30.15,1.8,NE,3.5,-,N/A,,Overcast,50,2013-01-12 22:51:00
6:15 PM,57.2,55.4,94,30.15,2.0,NE,3.5,-,N/A,,Overcast,50,2013-01-12 23:15:00
6:43 PM,57.2,55.4,94,30.15,2.5,ENE,4.6,-,N/A,,Overcast,70,2013-01-12 23:43:00
6:51 PM,55.9,55.9,100,30.15,2.5,ENE,3.5,-,N/A,,Overcast,60,2013-01-12 23:51:00
7:17 PM,55.4,55.4,100,30.14,3.0,ENE,4.6,-,N/A,,Overcast,60,2013-01-13 00:17:00
7:51 PM,55.9,55.9,100,30.14,3.0,Calm,Calm,-,N/A,,Overcast,0,2013-01-13 00:51:00
8:20 PM,55.4,55.4,100,30.14,2.0,ENE,3.5,-,N/A,,Overcast,60,2013-01-13 01:20:00
8:51 PM,55.9,55.9,100,30.14,4.0,Calm,Calm,-,N/A,,Overcast,0,2013-01-13 01:51:00
9:14 PM,55.4,55.4,100,30.14,2.0,Calm,Calm,-,N/A,,Overcast,0,2013-01-13 02:14:00
9:46 PM,55.4,55.4,100,30.14,1.8,Calm,Calm,-,N/A,,Overcast,0,2013-01-13 02:46:00
9:51 PM,55.9,55.9,100,30.14,1.5,Calm,Calm,-,N/A,,Overcast,0,2013-01-13 02:51:00
10:00 PM,55.4,55.4,100,30.15,1.2,NNE,4.6,-,N/A,,Overcast,20,2013-01-13 03:00:00
10:51 PM,55.0,55.0,100,30.15,1.0,North,4.6,-,N/A,,Mist,10,2013-01-13 03:51:00
11:19 PM,55.4,53.6,94,30.15,1.0,NNE,5.8,-,N/A,,Mist,20,2013-01-13 04:19:00
11:51 PM,54.0,54.0,100,30.14,1.2,NNE,6.9,-,N/A,,Overcast,30,2013-01-13 04:51:00